1998-067TU

Last updated on Thu Jul 28 2022 00:02:05 GMT+0000 (Coordinated Universal Time)

1 53309U 98067TU 22206.80504219 .00025504 00000+0 44515-3 0 9998 2 53309 51.6408 145.3028 0004778 60.8080 299.3420 15.50514688 661
UTC large
Height (km)
Speed (km/s)
/
Latitude / Longitude
Inclination (degrees)
Orbital Period (minutes)
Azimuth
Elevation
Range (km)
Doppler Factor

Next 0 passes for location: London (51.5072 / 0.1276)

Sorry there are no passes over London.